Schneifelwetter: Wetterstation Hallschlag, 537 m . NN
Wetterdaten: Dienstag, 28.11.2006
Datum Zeit Temp. A. Temp. 2 Feuchte A. Luftdruck Regen Wind Richtung Richtung Sonnenschein Helligkeit T Regen Taupunkt Windchill
28.11.2006 00:01 8,2 C 7,5 C 95 % 1020 hPa 0,0 l/m 15,3 km/h (3 Bft) S22.5 180 0 min 0 lux 0,00 min 7,4 C 2,8 C
28.11.2006 00:16 8,1 C 7,6 C 95 % 1020 hPa 0,0 l/m 17,0 km/h (3 Bft) S22.5 185 0 min 0 lux 0,00 min 7,3 C 2,0 C
28.11.2006 00:31 8,0 C 7,3 C 95 % 1020 hPa 0,0 l/m 10,9 km/h (2 Bft) S22.5 175 0 min 0 lux 0,00 min 7,2 C 4,8 C
28.11.2006 00:46 8,0 C 7,4 C 95 % 1020 hPa 0,0 l/m 11,3 km/h (2 Bft) S22.5 170 0 min 0 lux 0,00 min 7,2 C 4,6 C
28.11.2006 01:01 7,8 C 7,3 C 95 % 1020 hPa 0,0 l/m 9,6 km/h (2 Bft) S22.5 180 0 min 0 lux 0,00 min 7,0 C 5,4 C
28.11.2006 01:16 7,9 C 7,3 C 95 % 1020 hPa 0,0 l/m 11,1 km/h (2 Bft) S22.5 185 0 min 0 lux 0,00 min 7,1 C 4,6 C
28.11.2006 01:31 7,9 C 7,2 C 95 % 1020 hPa 0,0 l/m 10,9 km/h (2 Bft) S22.5 180 0 min 0 lux 0,00 min 7,1 C 4,7 C
28.11.2006 01:46 8,0 C 7,3 C 95 % 1019 hPa 0,0 l/m 15,8 km/h (3 Bft) S22.5 180 0 min 0 lux 0,00 min 7,2 C 2,4 C
28.11.2006 02:01 8,2 C 7,5 C 95 % 1019 hPa 0,0 l/m 18,8 km/h (3 Bft) S22.5 170 0 min 0 lux 0,00 min 7,4 C 1,4 C
28.11.2006 02:16 8,1 C 7,4 C 95 % 1019 hPa 0,0 l/m 14,0 km/h (3 Bft) S 185 0 min 0 lux 0,00 min 7,3 C 3,3 C
28.11.2006 02:31 8,2 C 7,5 C 95 % 1019 hPa 0,0 l/m 17,0 km/h (3 Bft) S22.5 180 0 min 0 lux 0,00 min 7,4 C 2,1 C
28.11.2006 02:46 8,1 C 7,5 C 95 % 1019 hPa 0,0 l/m 15,6 km/h (3 Bft) S22.5 185 0 min 0 lux 0,00 min 7,3 C 2,6 C
28.11.2006 03:01 8,0 C 7,3 C 95 % 1020 hPa 0,0 l/m 12,0 km/h (2 Bft) S-SW45 205 0 min 0 lux 0,00 min 7,2 C 4,2 C
28.11.2006 03:16 7,8 C 7,1 C 95 % 1019 hPa 0,0 l/m 11,0 km/h (2 Bft) SW45 215 0 min 0 lux 0,00 min 7,0 C 4,6 C
28.11.2006 03:31 7,7 C 7,0 C 95 % 1019 hPa 0,0 l/m 12,1 km/h (2 Bft) W-SW22.5 245 0 min 0 lux 0,00 min 7,0 C 3,8 C
28.11.2006 03:46 7,6 C 7,0 C 95 % 1019 hPa 0,0 l/m 12,0 km/h (2 Bft) SW45 220 0 min 0 lux 0,00 min 6,9 C 3,8 C
28.11.2006 04:01 7,6 C 7,0 C 95 % 1019 hPa 0,0 l/m 9,8 km/h (2 Bft) S-SW22.5 200 0 min 0 lux 0,00 min 6,9 C 5,1 C
28.11.2006 04:16 7,6 C 7,1 C 95 % 1019 hPa 0,0 l/m 18,6 km/h (3 Bft) SW45 225 0 min 0 lux 0,00 min 6,9 C 0,7 C
28.11.2006 04:31 7,6 C 7,1 C 95 % 1019 hPa 0,0 l/m 13,5 km/h (3 Bft) SW45 215 0 min 0 lux 0,00 min 6,9 C 3,0 C
28.11.2006 04:46 7,6 C 7,0 C 95 % 1019 hPa 0,0 l/m 9,0 km/h (2 Bft) S22.5 180 0 min 0 lux 0,00 min 6,9 C 5,6 C
28.11.2006 05:01 7,6 C 7,0 C 95 % 1019 hPa 0,0 l/m 17,8 km/h (3 Bft) S-SW45 195 0 min 0 lux 0,00 min 6,9 C 1,0 C
28.11.2006 05:16 7,7 C 7,2 C 95 % 1018 hPa 0,0 l/m 11,0 km/h (2 Bft) W-SW22.5 240 0 min 0 lux 0,00 min 7,0 C 4,4 C
28.11.2006 05:31 7,6 C 7,0 C 95 % 1018 hPa 0,0 l/m 12,8 km/h (3 Bft) W-SW45 245 0 min 0 lux 0,00 min 6,9 C 3,3 C
28.11.2006 05:46 7,6 C 7,1 C 95 % 1018 hPa 0,0 l/m 15,5 km/h (3 Bft) W-SW22.5 245 0 min 0 lux 0,00 min 6,9 C 2,0 C
28.11.2006 06:01 7,6 C 7,0 C 95 % 1018 hPa 0,0 l/m 16,8 km/h (3 Bft) SW45 225 0 min 0 lux 0,00 min 6,9 C 1,4 C
28.11.2006 06:16 7,6 C 7,0 C 95 % 1018 hPa 0,0 l/m 14,3 km/h (3 Bft) W-SW22.5 250 0 min 0 lux 0,00 min 6,9 C 2,6 C
28.11.2006 06:31 7,5 C 6,9 C 95 % 1018 hPa 0,0 l/m 19,5 km/h (3 Bft) W-SW45 240 0 min 0 lux 0,00 min 6,8 C 0,2 C
28.11.2006 06:46 7,5 C 6,9 C 95 % 1018 hPa 0,0 l/m 19,2 km/h (3 Bft) W-SW22.5 240 0 min 0 lux 0,00 min 6,8 C 0,4 C
28.11.2006 07:01 7,5 C 6,8 C 95 % 1018 hPa 0,0 l/m 13,8 km/h (3 Bft) SW22.5 215 0 min 0 lux 0,00 min 6,8 C 2,7 C
28.11.2006 07:16 7,3 C 6,7 C 95 % 1018 hPa 0,0 l/m 14,6 km/h (3 Bft) S-SW45 210 0 min 0 lux 0,00 min 6,6 C 2,1 C
28.11.2006 07:31 7,2 C 6,6 C 95 % 1018 hPa 0,0 l/m 12,0 km/h (2 Bft) S22.5 180 0 min 0 lux 0,00 min 6,5 C 3,3 C
28.11.2006 07:46 7,0 C 6,4 C 95 % 1018 hPa 0,0 l/m 11,3 km/h (2 Bft) S-SW22.5 205 0 min 0 lux 0,00 min 6,3 C 3,5 C
28.11.2006 08:01 7,0 C 6,3 C 95 % 1017 hPa 0,0 l/m 9,2 km/h (2 Bft) SW22.5 220 0 min 0 lux 0,00 min 6,3 C 4,8 C
28.11.2006 08:16 7,0 C 6,3 C 95 % 1017 hPa 0,0 l/m 15,1 km/h (3 Bft) S22.5 185 0 min 251 lux 0,00 min 6,3 C 1,5 C
28.11.2006 08:31 7,1 C 6,4 C 95 % 1017 hPa 0,0 l/m 16,2 km/h (3 Bft) S22.5 175 0 min 558 lux 0,00 min 6,4 C 1,1 C
28.11.2006 08:46 7,2 C 6,4 C 95 % 1017 hPa 0,0 l/m 14,0 km/h (3 Bft) S22.5 170 0 min 2,10 klux 0,00 min 6,5 C 2,2 C
28.11.2006 09:01 7,6 C 6,7 C 95 % 1017 hPa 0,0 l/m 14,4 km/h (3 Bft) S-SW22.5 195 0 min 4,44 klux 0,00 min 6,9 C 2,5 C
28.11.2006 09:16 8,0 C 7,1 C 95 % 1017 hPa 0,0 l/m 19,9 km/h (4 Bft) S22.5 175 0 min 7,38 klux 0,00 min 7,2 C 0,7 C
28.11.2006 09:31 8,5 C 7,5 C 94 % 1017 hPa 0,0 l/m 25,8 km/h (4 Bft) S22.5 185 0 min 11,9 klux 0,00 min 7,6 C -0,4 C
28.11.2006 09:46 9,0 C 8,0 C 93 % 1017 hPa 0,0 l/m 20,8 km/h (4 Bft) S45 190 0 min 19,6 klux 0,00 min 7,9 C 1,7 C
28.11.2006 10:01 9,3 C 8,3 C 92 % 1017 hPa 0,0 l/m 21,0 km/h (4 Bft) S-SW45 195 0 min 19,1 klux 0,00 min 8,1 C 2,1 C
28.11.2006 10:16 9,6 C 8,7 C 91 % 1017 hPa 0,0 l/m 26,3 km/h (4 Bft) S22.5 190 0 min 22,9 klux 0,00 min 8,2 C 1,0 C
28.11.2006 10:31 9,7 C 9,1 C 90 % 1017 hPa 0,0 l/m 25,2 km/h (4 Bft) S45 190 0 min 29,3 klux 0,00 min 8,1 C 1,4 C
28.11.2006 10:46 9,7 C 9,9 C 89 % 1017 hPa 0,0 l/m 30,4 km/h (5 Bft) S45 190 0 min 38,7 klux 0,00 min 8,0 C 0,1 C
28.11.2006 11:01 10,2 C 11,0 C 87 % 1017 hPa 0,0 l/m 32,1 km/h (5 Bft) S22.5 180 0 min 39,2 klux 0,00 min 8,1 C 0,5 C
28.11.2006 11:16 10,6 C 12,1 C 87 % 1017 hPa 0,0 l/m 28,8 km/h (4 Bft) S45 180 0 min 45,1 klux 0,00 min 8,5 C 1,8 C
28.11.2006 11:31 11,0 C 13,2 C 86 % 1017 hPa 0,0 l/m 25,2 km/h (4 Bft) S-SW45 195 15 min 50,1 klux 0,00 min 8,7 C 3,1 C
28.11.2006 11:46 11,0 C 13,7 C 85 % 1017 hPa 0,0 l/m 22,0 km/h (4 Bft) S22.5 185 15 min 49,1 klux 0,00 min 8,6 C 4,0 C
28.11.2006 12:01 11,4 C 14,4 C 84 % 1017 hPa 0,0 l/m 26,6 km/h (4 Bft) S-SW45 205 15 min 53,7 klux 0,00 min 8,8 C 3,4 C
28.11.2006 12:16 11,5 C 14,5 C 84 % 1016 hPa 0,0 l/m 22,4 km/h (4 Bft) S-SW67.5 200 15 min 47,2 klux 0,00 min 8,9 C 4,5 C
28.11.2006 12:31 11,8 C 14,9 C 83 % 1016 hPa 0,0 l/m 23,5 km/h (4 Bft) S22.5 170 15 min 54,1 klux 0,00 min 9,0 C 4,6 C
28.11.2006 12:47 11,7 C 15,1 C 82 % 1016 hPa 0,0 l/m 35,7 km/h (5 Bft) SW45 230 16 min 49,8 klux 0,00 min 8,7 C 2,0 C
28.11.2006 13:02 11,7 C 14,9 C 82 % 1016 hPa 0,0 l/m 29,3 km/h (5 Bft) SW45 220 15 min 47,0 klux 0,00 min 8,7 C 3,2 C
28.11.2006 13:17 11,6 C 14,4 C 82 % 1016 hPa 0,0 l/m 23,8 km/h (4 Bft) S-SW22.5 195 0 min 40,6 klux 0,00 min 8,6 C 4,3 C
28.11.2006 13:32 11,6 C 14,3 C 83 % 1016 hPa 0,0 l/m 18,0 km/h (3 Bft) S-SW67.5 200 0 min 43,9 klux 0,00 min 8,8 C 6,0 C
28.11.2006 13:47 11,8 C 14,2 C 82 % 1016 hPa 0,0 l/m 22,3 km/h (4 Bft) S-SW45 200 0 min 43,1 klux 0,00 min 8,8 C 5,0 C
28.11.2006 14:02 12,0 C 13,3 C 82 % 1016 hPa 0,0 l/m 21,3 km/h (4 Bft) S-SW67.5 195 0 min 41,7 klux 0,00 min 9,0 C 5,5 C
28.11.2006 14:17 11,8 C 12,6 C 82 % 1016 hPa 0,0 l/m 24,3 km/h (4 Bft) SW67.5 215 0 min 28,8 klux 0,00 min 8,8 C 4,4 C
28.11.2006 14:32 11,8 C 12,2 C 82 % 1016 hPa 0,0 l/m 24,1 km/h (4 Bft) SW45 230 0 min 31,4 klux 0,00 min 8,8 C 4,5 C
28.11.2006 14:47 11,7 C 12,0 C 82 % 1016 hPa 0,0 l/m 21,0 km/h (4 Bft) S22.5 180 0 min 29,5 klux 0,00 min 8,7 C 5,2 C
28.11.2006 15:02 11,6 C 12,1 C 83 % 1016 hPa 0,0 l/m 17,9 km/h (3 Bft) SW45 215 0 min 23,0 klux 0,00 min 8,8 C 6,0 C
28.11.2006 15:17 11,4 C 11,8 C 84 % 1016 hPa 0,0 l/m 15,3 km/h (3 Bft) S-SW22.5 195 0 min 9,3 klux 0,00 min 8,8 C 6,7 C
28.11.2006 15:32 11,2 C 11,4 C 84 % 1016 hPa 0,0 l/m 17,6 km/h (3 Bft) S-SW45 210 0 min 9,6 klux 0,00 min 8,6 C 5,6 C
28.11.2006 15:47 10,9 C 11,5 C 84 % 1016 hPa 0,0 l/m 11,9 km/h (2 Bft) S22.5 190 0 min 9,4 klux 0,00 min 8,3 C 7,6 C
28.11.2006 16:02 10,7 C 11,1 C 85 % 1016 hPa 0,0 l/m 11,6 km/h (2 Bft) S22.5 180 0 min 8,41 klux 0,00 min 8,3 C 7,5 C
28.11.2006 16:17 10,3 C 10,5 C 85 % 1016 hPa 0,0 l/m 20,0 km/h (4 Bft) S-SW22.5 195 0 min 3,52 klux 0,00 min 7,9 C 3,7 C
28.11.2006 16:32 9,9 C 10,0 C 87 % 1016 hPa 0,0 l/m 16,4 km/h (3 Bft) S22.5 180 0 min 3,36 klux 0,00 min 7,8 C 4,4 C
28.11.2006 16:47 9,6 C 9,2 C 87 % 1016 hPa 0,0 l/m 16,3 km/h (3 Bft) S22.5 185 0 min 1,58 klux 0,00 min 7,5 C 4,1 C
28.11.2006 17:02 9,1 C 8,5 C 88 % 1016 hPa 0,0 l/m 11,8 km/h (2 Bft) S-SO22.5 160 0 min 601 lux 0,00 min 7,2 C 5,6 C
28.11.2006 17:17 8,6 C 8,1 C 89 % 1016 hPa 0,0 l/m 15,3 km/h (3 Bft) SW45 220 0 min 163 lux 0,00 min 6,9 C 3,3 C
28.11.2006 17:32 8,6 C 8,0 C 90 % 1017 hPa 0,0 l/m 14,3 km/h (3 Bft) S-SW22.5 200 0 min 30 lux 0,00 min 7,1 C 3,8 C
28.11.2006 17:47 8,5 C 8,0 C 90 % 1017 hPa 0,0 l/m 16,0 km/h (3 Bft) SW45 215 0 min 7 lux 0,00 min 7,0 C 2,9 C
28.11.2006 18:02 8,6 C 8,0 C 90 % 1017 hPa 0,0 l/m 19,0 km/h (3 Bft) SW45 220 0 min 4 lux 0,00 min 7,1 C 1,8 C
28.11.2006 18:17 8,7 C 8,5 C 91 % 1017 hPa 0,0 l/m 10,2 km/h (2 Bft) S-SW22.5 200 0 min 4 lux 0,00 min 7,3 C 6,0 C
28.11.2006 18:32 9,2 C 8,7 C 91 % 1017 hPa 0,0 l/m 19,0 km/h (3 Bft) S-SW67.5 195 0 min 3 lux 0,00 min 7,8 C 2,6 C
28.11.2006 18:47 9,2 C 8,5 C 90 % 1017 hPa 0,0 l/m 17,3 km/h (3 Bft) S45 190 0 min 0 lux 0,00 min 7,6 C 3,2 C
28.11.2006 19:02 8,9 C 8,3 C 90 % 1018 hPa 0,0 l/m 18,1 km/h (3 Bft) S22.5 185 0 min 1 lux 0,00 min 7,4 C 2,5 C
28.11.2006 19:17 9,1 C 8,8 C 91 % 1018 hPa 0,0 l/m 19,1 km/h (3 Bft) S45 185 0 min 0 lux 0,00 min 7,7 C 2,4 C
28.11.2006 19:32 9,3 C 9,0 C 91 % 1018 hPa 0,0 l/m 15,2 km/h (3 Bft) S-SW45 200 0 min 0 lux 0,00 min 7,9 C 4,2 C
28.11.2006 19:47 9,4 C 8,9 C 90 % 1018 hPa 0,0 l/m 15,5 km/h (3 Bft) S-SW45 205 0 min 0 lux 0,00 min 7,8 C 4,2 C
28.11.2006 20:02 9,2 C 8,8 C 91 % 1018 hPa 0,0 l/m 15,5 km/h (3 Bft) S-SW45 200 0 min 0 lux 0,00 min 7,8 C 4,0 C
28.11.2006 20:17 9,3 C 9,0 C 91 % 1018 hPa 0,0 l/m 19,8 km/h (3 Bft) S-SW22.5 200 0 min 0 lux 0,00 min 7,9 C 2,5 C
28.11.2006 20:32 9,2 C 8,6 C 90 % 1018 hPa 0,0 l/m 14,3 km/h (3 Bft) S22.5 185 0 min 0 lux 0,00 min 7,6 C 4,5 C
28.11.2006 20:47 8,7 C 8,1 C 90 % 1018 hPa 0,0 l/m 9,8 km/h (2 Bft) S-SW45 205 0 min 0 lux 0,00 min 7,2 C 6,3 C
28.11.2006 21:02 8,4 C 7,9 C 91 % 1018 hPa 0,0 l/m 19,7 km/h (3 Bft) S-SW22.5 200 0 min 0 lux 0,00 min 7,0 C 1,3 C
28.11.2006 21:17 8,4 C 8,0 C 92 % 1018 hPa 0,0 l/m 14,2 km/h (3 Bft) S22.5 190 0 min 0 lux 0,00 min 7,2 C 3,6 C
28.11.2006 21:32 8,5 C 8,2 C 92 % 1018 hPa 0,0 l/m 15,4 km/h (3 Bft) S-SW45 205 0 min 0 lux 0,00 min 7,3 C 3,1 C
28.11.2006 21:47 9,0 C 8,6 C 93 % 1018 hPa 0,0 l/m 21,1 km/h (4 Bft) SW45 225 0 min 0 lux 0,00 min 7,9 C 1,6 C
28.11.2006 22:02 9,5 C 9,1 C 92 % 1019 hPa 0,0 l/m 29,0 km/h (5 Bft) SW45 225 0 min 0 lux 0,00 min 8,3 C 0,2 C
28.11.2006 22:17 9,6 C 9,3 C 91 % 1019 hPa 0,0 l/m 25,4 km/h (4 Bft) SW67.5 220 0 min 0 lux 0,00 min 8,2 C 1,2 C
28.11.2006 22:32 9,6 C 9,3 C 90 % 1019 hPa 0,0 l/m 30,5 km/h (5 Bft) SW45 225 0 min 0 lux 0,00 min 8,0 C -0,0 C
28.11.2006 22:47 9,5 C 9,2 C 90 % 1019 hPa 0,0 l/m 24,0 km/h (4 Bft) W-SW45 245 0 min 0 lux 0,00 min 7,9 C 1,4 C
28.11.2006 23:02 9,4 C 9,1 C 90 % 1019 hPa 0,0 l/m 17,4 km/h (3 Bft) W-SW45 250 0 min 0 lux 0,00 min 7,8 C 3,4 C
28.11.2006 23:17 9,3 C 9,1 C 90 % 1019 hPa 0,0 l/m 24,3 km/h (4 Bft) W-SW45 240 0 min 0 lux 0,00 min 7,7 C 1,1 C
28.11.2006 23:32 9,3 C 9,0 C 91 % 1019 hPa 0,3 l/m 18,5 km/h (3 Bft) W-SW45 255 0 min 0 lux 15,00 min 7,9 C 2,9 C
28.11.2006 23:46 9,2 C 8,8 C 91 % 1019 hPa 0,0 l/m 19,5 km/h (3 Bft) W-SW45 255 0 min 0 lux 0,00 min 7,8 C 2,4 C
_ Min-Zeit 07:46 08:01 12:47 12:16 - 04:46 - - - - - 07:46 09:31
Minimum _ 7,0 C 6,3 C 82 % 1016 hPa - 9,0 km/h (2 Bft) - - - - - 6,3 C -0,4 C
_ Max-Zeit 14:02 12:47 00:01 00:01 23:32 12:47 - - 12:47 12:31 23:32 14:02 15:47
Maximum _ 12,0 C 15,1 C 95 % 1020 hPa 0,3 l/m 35,7 km/h
SW (5 Bft)
- - 16 min 54,1 klux 15,00 min 9,0 C 7,6 C
Durchschnitt _ 9,1 C 9,0 C 91 % 1018 hPa #0,3 l/m 17,9 km/h (3 Bft) S - #1:46 h 9,6 klux #15 min. 7,6 C 3,2 C